Lid_Strength_Index
-2 -1 -1 -1 1 -0 -1 -1 -1 -1 -0 0 -1 -1 -1 -1 -1 -1 -1 -1 -2 -2 -1 -1 -1 -1 2 7 6 1 1 1 1 1 5 7 8 9 11 10 8 9 9 7 6 6 7
-2 -1 -1 -2 -1 1 -0 -0 -1 -0 -1 0 0 -0 -1 -1 -1 -1 -1 -1 -0 -0 -2 -2 -1 -1 4 11 2 1 2 2 1 2 5 6 8 8 9 10 10 8 8 7 7 7 7
-2 -2 -2 -1 -2 -0 1 0 -0 -1 -1 -1 0 0 -1 -1 -1 -1 -1 -1 -0 -0 -1 -2 -2 0 5 8 4 2 2 2 2 2 4 4 3 7 8 10 7 7 10 9 8 8 8
-2 -2 -2 -2 -1 -1 -0 1 0 -0 -1 -1 -1 -0 0 -0 -1 -1 -1 -1 -1 -1 -0 -2 -2 2 7 3 4 4 2 2 1 1 2 2 2 5 6 7 8 10 12 14 10 8 8
-2 -2 -2 -2 -2 -1 -1 1 1 0 -0 -1 -0 -0 -0 0 -1 -1 -1 -1 -1 -1 -1 -1 2 4 7 1 5 4 4 4 2 2 2 1 3 6 7 10 12 12 17 15 12 9 9
-2 -2 -2 -2 -1 -1 -1 -1 1 1 0 -0 -0 -0 -1 -1 -1 -0 -1 -1 -1 -1 -0 1 3 7 4 6 4 4 4 3 3 4 5 5 7 10 10 12 16 14 15 14 14 10 10
-1 -1 -2 -2 -1 -1 -1 -1 1 2 1 1 -0 -0 -0 -1 -1 -1 1 3 6 8 5 7 7 7 5 3 2 4 4 4 4 6 10 8 11 13 12 10 10 11 13 14 13 10 11
-1 -1 -2 -2 -2 -1 -1 -1 -0 1 2 2 1 -0 -1 -1 -1 -0 2 6 6 5 8 5 4 5 3 3 6 4 3 6 8 11 8 11 13 9 8 9 10 11 13 13 11 9 11
-1 -1 -1 -2 -1 -1 -1 -1 -0 1 2 2 2 0 -0 -1 -1 1 4 5 3 4 9 8 6 6 5 5 7 7 5 6 9 10 10 12 10 8 9 10 11 12 13 13 13 11 11
-1 -1 -1 -1 -2 -2 -1 -1 -1 1 2 1 2 1 -0 -1 2 2 4 2 2 4 13 11 9 7 5 5 9 5 4 6 9 11 10 10 9 9 10 11 10 14 10 10 12 13 17
-1 -1 -1 -1 -1 -1 -1 -1 -1 1 3 2 2 2 -0 -1 2 4 3 2 3 5 20 12 9 4 5 9 8 7 4 6 10 10 10 12 10 11 12 11 9 12 9 10 11 14 15
-1 -1 -1 -1 -1 -1 -1 -1 -1 0 1 2 1 2 0 1 2 2 2 3 5 13 19 13 9 9 9 8 8 6 7 6 6 10 9 10 8 9 10 9 8 9 10 11 11 13 20
-1 -1 -1 -1 -1 -1 -1 -1 -1 -0 1 2 2 2 1 1 4 2 2 5 14 18 13 14 12 10 10 11 10 9 10 10 12 15 15 11 11 10 8 11 9 10 13 18 19 19 20
-1 -1 -1 -1 -1 -1 -0 -1 -1 -1 1 2 2 2 1 1 2 2 4 10 17 16 15 12 11 10 12 10 11 10 11 13 10 11 14 16 17 11 9 10 13 12 13 18 22 21 20
-1 -0 -0 -0 -1 -0 -0 -0 -1 -1 2 2 2 2 2 3 1 2 8 15 15 16 13 13 11 13 13 11 11 11 12 12 10 10 14 15 15 10 9 9 9 13 15 11 16 20 20
-0 -0 -0 0 1 0 0 0 -0 -0 2 2 4 3 4 2 2 4 11 13 13 11 10 10 16 13 15 13 13 12 13 10 10 9 9 12 16 12 11 9 9 11 9 16 18 25 24
-0 -0 -0 1 -0 -1 -1 -1 0 0 2 2 4 7 4 2 2 8 13 13 12 10 9 12 14 14 14 13 12 13 13 11 9 10 9 11 13 14 11 13 13 12 13 13 13 18 22
-0 -0 1 0 -0 -0 -0 -0 0 2 2 3 7 13 4 2 10 12 13 12 10 10 9 10 11 12 13 11 13 12 13 12 8 8 11 10 12 16 14 11 10 11 13 13 19 19 19
-0 0 0 1 1 1 1 -0 0 0 2 6 12 10 5 4 14 13 11 11 10 11 11 11 12 11 10 11 14 12 11 10 8 9 10 10 14 18 16 13 12 13 12 12 13 15 17
-0 0 0 1 1 1 0 0 1 1 3 7 11 13 11 8 10 11 12 12 13 9 10 10 11 10 11 12 11 13 12 10 9 8 7 8 12 15 17 16 13 15 13 12 13 19 16
0 0 0 0 0 -0 0 1 1 2 3 8 12 14 12 14 13 10 11 12 12 13 9 9 11 11 12 15 13 13 11 10 9 8 8 9 14 12 12 13 14 14 14 14 15 14 16
-0 0 -0 -0 0 0 -0 1 2 3 4 9 12 12 11 12 10 11 10 12 12 12 11 13 12 11 10 12 12 12 11 11 11 10 10 9 14 12 16 13 14 15 14 14 14 14 15
-0 -0 -0 -1 -0 0 0 1 2 2 5 10 8 8 10 11 12 11 12 11 11 10 10 9 10 10 10 9 9 8 8 8 8 10 11 11 14 18 21 15 16 22 17 14 13 13 13
-0 -0 -0 -0 -1 -0 1 1 2 2 4 6 7 8 11 13 12 12 11 10 11 10 11 10 9 9 9 7 7 8 9 9 8 10 8 11 13 15 22 21 26 16 13 12 13 12 12
-0 0 0 -0 -0 -0 0 1 2 2 2 6 6 7 10 12 11 11 11 11 10 10 11 10 9 8 7 8 12 15 15 14 14 12 11 9 12 18 18 26 18 16 14 14 14 15 12
-0 0 0 0 -0 -0 0 0 1 2 3 5 6 6 8 12 12 10 11 10 11 12 11 11 8 6 7 11 15 20 19 19 18 17 12 10 10 15 22 23 24 17 12 10 11 18 11
-1 -1 -0 0 0 0 0 0 0 1 1 4 6 5 7 10 10 10 11 11 9 10 12 11 10 9 8 13 16 19 20 16 19 20 19 15 16 17 19 20 19 14 12 10 17 16 12
-1 -1 -1 -0 -0 0 1 1 0 1 1 4 6 5 7 10 10 9 9 9 9 10 13 11 11 11 11 13 14 15 18 16 19 17 17 16 15 18 16 18 20 12 12 13 11 12 12
-1 -1 -1 -1 -1 -1 -0 -0 0 0 0 1 6 5 5 9 9 7 8 7 8 8 9 10 10 10 10 12 13 13 17 20 22 21 14 17 14 16 14 15 12 12 11 10 11 11 11